[[{"header":{"parameterUnit":"m.s-1","parameterCategory":1,"la1":30.2991,"la2":30.254,"lo1":-89.0895,"lo2":-89.0444,"dy":0.0017,"dx":0.0017,"nx":28,"ny":28,"refTime":"2024-05-22T21:00:00:Z","depth":0,"parameterNumber":2,"parameterNumberName":"U-component_of_WINDS"},"data":[0,0,0,0,0,0,0,0,0,0,0,0,0,0,0,0,0,0,0,0,0,0,0,0,0,0,0,0,0,0,0,0,0,0,0,0,0,0,0,0,0,0,0,0,0,0,0,0,0,0,0,0,0,0,0,0,0,0,-1.2045,-1.2044,0,-1.2004,-1.2003,-1.2003,-1.1952,-1.1951,-1.195,-1.195,-1.1907,-1.1907,-1.1906,0,0,0,0,0,0,0,0,0,0,0,0,0,-1.208,-1.2079,-1.2045,-1.2044,-1.2044,-1.2004,-1.2003,-1.2003,-1.1952,-1.1951,-1.195,-1.1949,-1.1907,-1.1907,-1.1906,0,0,0,0,0,0,0,0,0,0,0,0,0,-1.2054,-1.2079,-1.2045,-1.2014,-1.201,-1.2004,-1.2003,-1.2002,-1.1952,-1.1951,-1.195,-1.1949,-1.1907,-1.1907,-1.1906,-1.1926,0,0,-1.1904,-1.1904,0,0,0,0,0,0,0,0,-1.2056,-1.2053,-1.2019,-1.2016,-1.2012,-1.1982,-1.2,-1.1977,-1.1953,-1.1974,-1.195,-1.1948,-1.1933,-1.193,-1.1925,-1.1924,-1.1923,-1.1904,-1.1904,-1.1904,-1.1903,0,0,0,0,0,0,0,-1.2057,-1.2054,-1.2028,-1.2018,-1.2014,-1.2002,-1.1997,-1.1995,-1.1961,-1.1972,-1.1969,-1.1965,-1.1931,-1.1926,-1.1924,-1.1922,-1.1904,-1.1904,-1.1903,-1.1903,-1.1936,-1.1938,0,0,0,0,0,0,-1.2064,-1.2056,-1.203,-1.2027,-1.2031,-1.2002,-1.1997,-1.1993,-1.1961,-1.1955,-1.1966,-1.1962,-1.1927,-1.1924,-1.1922,-1.1943,-1.1904,-1.1903,-1.1903,-1.1935,-1.1937,-1.1938,0,0,0,0,0,0,-1.2065,-1.2062,-1.2031,-1.2041,-1.2036,-1.2003,-1.1999,-1.1993,-1.1987,-1.1955,-1.1949,-1.1967,-1.1926,-1.1923,-1.1926,-1.1941,-1.1903,-1.1902,-1.1934,-1.1936,-1.1937,-1.1986,0,0,0,0,0,0,-1.2066,-1.2063,-1.207,-1.2041,-1.2036,-1.2036,-1.2,-1.1993,-1.1986,-1.1982,-1.1955,-1.1949,-1.1925,-1.1927,-1.1925,-1.1939,-1.1902,-1.1932,-1.1935,-1.1937,-1.1983,-1.199,-1.1995,0,0,0,0,0,-1.2068,-1.2085,-1.207,-1.2068,-1.2044,-1.2037,-1.2034,-1.2006,-1.1988,-1.1995,-1.1975,-1.195,-1.194,-1.1928,-1.1925,-1.194,-1.1931,-1.1934,-1.1937,-1.198,-1.1988,-1.1995,0,0,0,0,0,0,-1.2116,-1.2081,-1.2064,-1.2073,-1.2058,-1.2028,-1.2036,-1.2015,-1.2005,-1.2001,-1.1966,-1.1961,-1.1968,-1.1954,-1.1941,-1.1958,-1.1932,-1.1934,-1.1966,-1.1973,-1.1979,-1.1982,-1.1901,0,0,0,0,0,-1.2128,-1.2125,-1.2095,-1.2105,-1.2099,-1.2069,-1.2065,-1.2045,-1.2028,-1.2022,-1.2002,-1.1986,-1.198,-1.1976,-1.1968,-1.1982,-1.1975,-1.199,-1.1997,-1.2002,-1.2004,-1.201,-1.2016,-1.1947,-1.1947,-1.1947,0,0,-1.2152,-1.2132,-1.2133,-1.2115,-1.2101,-1.2099,-1.2064,-1.2063,-1.2062,-1.2022,-1.2023,-1.2008,-1.1989,-1.1997,-1.2,-1.1986,-1.2021,-1.2005,-1.2009,-1.2009,-1.2013,-1.202,-1.2025,-1.1949,-1.1949,-1.1948,0,0,-1.2195,-1.218,-1.2187,-1.2174,-1.2154,-1.2135,-1.2137,-1.211,-1.2099,-1.21,-1.207,-1.2068,-1.2057,-1.2044,-1.2037,-1.2077,-1.2053,-1.2075,-1.2106,-1.2112,-1.2117,-1.2122,-1.2136,-1.2141,-1.2078,-1.2078,-1.2078,0,-1.2227,-1.2223,-1.2194,-1.2195,-1.2188,-1.2152,-1.2159,-1.2149,-1.2127,-1.2123,-1.2108,-1.2095,-1.2079,-1.2084,-1.2094,-1.2089,-1.209,-1.2077,-1.2119,-1.2123,-1.2127,-1.214,-1.2145,-1.208,-1.208,-1.208,-1.208,0,-1.2263,-1.2261,-1.2269,-1.2249,-1.2244,-1.2248,-1.222,-1.2217,-1.2198,-1.218,-1.2182,-1.2163,-1.2151,-1.2151,-1.2132,-1.2153,-1.2145,-1.2125,-1.2098,-1.2137,-1.2148,-1.2153,-1.2084,-1.2083,-1.2083,-1.2082,0,0,-1.2333,-1.2299,-1.2302,-1.2293,-1.2269,-1.2266,-1.227,-1.2258,-1.2256,-1.2243,-1.2245,-1.2237,-1.2219,-1.221,-1.219,-1.2196,-1.2228,-1.2175,-1.2174,-1.2185,-1.225,-1.2264,-1.227,-1.2214,-1.2214,-1.2215,-1.2251,0,-1.2371,-1.2373,-1.2348,-1.2358,-1.2355,-1.2322,-1.2325,-1.2311,-1.2294,-1.229,-1.2272,-1.2267,-1.2244,-1.2238,-1.2243,-1.2223,-1.2241,-1.2221,-1.2214,-1.2214,-1.2218,-1.2276,-1.2291,-1.2326,-1.2256,-1.2256,-1.2257,0,-1.2414,-1.2404,-1.2413,-1.2389,-1.2387,-1.239,-1.2377,-1.2374,-1.2357,-1.2345,-1.2336,-1.2314,-1.2315,-1.2291,-1.2292,-1.2279,-1.2275,-1.2266,-1.2267,-1.2264,-1.2237,-1.2274,-1.2336,-1.2341,-1.2264,-1.2263,-1.2263,0,-1.2463,-1.2452,-1.2456,-1.2449,-1.2422,-1.2424,-1.2413,-1.2395,-1.239,-1.238,-1.2376,-1.2366,-1.236,-1.2353,-1.2328,-1.2313,-1.2332,-1.2306,-1.2322,-1.2322,-1.2326,-1.2326,-1.2388,-1.2326,-1.2326,-1.2326,-1.2326,0,-1.2507,-1.2514,-1.2478,-1.248,-1.2487,-1.2458,-1.2466,-1.2452,-1.2436,-1.2436,-1.2407,-1.2407,-1.2375,-1.2371,-1.2352,-1.2356,-1.2354,-1.2344,-1.2338,-1.2346,-1.2347,-1.2341,-1.2338,-1.2327,-1.2327,-1.2326,-1.2326,0,-1.2562,-1.2539,-1.2541,-1.2515,-1.2509,-1.2515,-1.2492,-1.2494,-1.2476,-1.2476,-1.2474,-1.2447,-1.2441,-1.2416,-1.2405,-1.2392,-1.2402,-1.2392,-1.2407,-1.2403,-1.242,-1.2419,-1.248,-1.2486,-1.2422,-1.2422,-1.2423,0,-1.2591,-1.2595,-1.257,-1.2568,-1.2558,-1.2554,-1.2549,-1.2521,-1.2517,-1.2499,-1.2503,-1.2495,-1.2487,-1.248,-1.2459,-1.245,-1.2439,-1.2461,-1.2437,-1.2444,-1.2438,-1.2437,-1.2438,-1.2466,-1.2466,-1.2467,-1.2468,0,-1.2644,-1.2632,-1.2626,-1.2616,-1.261,-1.2601,-1.2589,-1.2589,-1.2559,-1.2555,-1.2549,-1.2543,-1.2532,-1.2524,-1.2512,-1.2501,-1.2479,-1.2476,-1.2479,-1.2485,-1.2494,-1.2488,-1.242,-1.2474,-1.2473,-1.2473,-1.2472,-1.2472,-1.2686,-1.2689,-1.2671,-1.2665,-1.2654,-1.2645,-1.2645,-1.2628,-1.2622,-1.2611,-1.2595,-1.2591,-1.2575,-1.2557,-1.2547,-1.2544,-1.2531,-1.2536,-1.2537,-1.2538,-1.2542,-1.2496,-1.2542,-1.2541,-1.2541,-1.2541,-1.2541,0,-1.2737,-1.2725,-1.2719,-1.2705,-1.27,-1.2681,-1.2668,-1.2665,-1.2662,-1.2649,-1.2643,-1.2636,-1.2629,-1.2608,-1.2599,-1.26,-1.259,-1.2599,-1.2598,-1.2595,-1.2553,-1.2551,-1.2607,-1.2607,-1.2607,-1.2607,-1.2607,-1.2607,-1.2763,-1.2766,-1.2753,-1.275,-1.2738,-1.2734,-1.2728,-1.2719,-1.2709,-1.2702,-1.2697,-1.2683,-1.2667,-1.2657,-1.265,-1.2644,-1.2641,-1.2653,-1.2644,-1.2605,-1.2598,-1.2592,-1.259,-1.2653,-1.2653,-1.2686,-1.2686,-1.2686]},{"header":{"parameterUnit":"m.s-1","parameterCategory":1,"la1":30.2991,"la2":30.254,"lo1":-89.0895,"lo2":-89.0444,"dy":0.0017,"dx":0.0017,"nx":28,"ny":28,"refTime":"2024-05-22T21:00:00:Z","depth":0,"parameterNumber":3,"parameterNumberName":"V-component_of_WINDS"},"data":[0,0,0,0,0,0,0,0,0,0,0,0,0,0,0,0,0,0,0,0,0,0,0,0,0,0,0,0,0,0,0,0,0,0,0,0,0,0,0,0,0,0,0,0,0,0,0,0,0,0,0,0,0,0,0,0,0,0,4.6765,4.6764,0,4.6746,4.6746,4.6746,4.6731,4.6731,4.6731,4.6731,4.6708,4.6708,4.6707,0,0,0,0,0,0,0,0,0,0,0,0,0,4.6784,4.6784,4.6765,4.6764,4.6764,4.6746,4.6746,4.6746,4.6731,4.6731,4.6731,4.6731,4.6709,4.6708,4.6707,0,0,0,0,0,0,0,0,0,0,0,0,0,4.6772,4.6784,4.6765,4.6755,4.6754,4.6746,4.6746,4.6746,4.6731,4.6731,4.6731,4.6731,4.6709,4.6708,4.6707,4.6707,0,0,4.6705,4.6705,0,0,0,0,0,0,0,0,4.6773,4.6771,4.6756,4.6755,4.6754,4.6741,4.6745,4.6733,4.6731,4.674,4.6731,4.6731,4.6719,4.6718,4.6714,4.6706,4.6705,4.6705,4.6705,4.6704,4.6704,0,0,0,0,0,0,0,4.6774,4.6772,4.6757,4.6756,4.6755,4.6751,4.6749,4.6743,4.6731,4.6739,4.6738,4.6736,4.6718,4.6715,4.6714,4.6705,4.6705,4.6705,4.6704,4.6704,4.6697,4.6698,0,0,0,0,0,0,4.6776,4.6773,4.6758,4.6757,4.6763,4.675,4.6748,4.6745,4.6731,4.6728,4.6736,4.6736,4.6716,4.6715,4.6713,4.6713,4.6704,4.6704,4.6703,4.6697,4.6697,4.6698,0,0,0,0,0,0,4.6777,4.6775,4.6759,4.6764,4.6762,4.675,4.6747,4.6745,4.6742,4.6729,4.6726,4.6735,4.6716,4.6714,4.6709,4.6712,4.6703,4.6703,4.6697,4.6697,4.6697,4.6713,0,0,0,0,0,0,4.6777,4.6775,4.6776,4.6765,4.6762,4.6756,4.6747,4.6745,4.6741,4.674,4.6727,4.6725,4.6716,4.6711,4.6709,4.6711,4.6702,4.6696,4.6697,4.6697,4.6712,4.6713,4.6715,0,0,0,0,0,4.6778,4.6779,4.6776,4.6774,4.6762,4.6756,4.6754,4.6745,4.6741,4.6741,4.6733,4.6725,4.6712,4.671,4.6708,4.671,4.6696,4.6697,4.6697,4.6711,4.6713,4.6715,0,0,0,0,0,0,4.6789,4.6778,4.6773,4.6771,4.6765,4.6754,4.6753,4.6747,4.6741,4.674,4.6728,4.6725,4.6722,4.6715,4.6713,4.671,4.6703,4.6703,4.6714,4.6716,4.6718,4.6719,4.6702,0,0,0,0,0,4.6791,4.6789,4.6778,4.6777,4.6775,4.6765,4.6762,4.6756,4.6748,4.6745,4.6736,4.6728,4.6723,4.6719,4.6713,4.6711,4.6708,4.6711,4.6713,4.6714,4.6714,4.6714,4.6716,4.6699,4.6699,4.6699,0,0,4.6795,4.6789,4.6788,4.6779,4.6774,4.6771,4.6762,4.6759,4.6756,4.6744,4.674,4.6733,4.6724,4.6721,4.6719,4.6716,4.6719,4.6715,4.6716,4.6715,4.6715,4.6717,4.6718,4.67,4.67,4.67,0,0,4.6802,4.6797,4.6796,4.6791,4.6784,4.6778,4.6778,4.6768,4.6764,4.676,4.6751,4.6747,4.6737,4.6732,4.6727,4.6734,4.6727,4.6733,4.674,4.674,4.6742,4.6743,4.6746,4.6747,4.6733,4.6733,4.6733,0,4.6808,4.6804,4.6796,4.6794,4.6791,4.6782,4.6781,4.6776,4.6767,4.6764,4.6761,4.675,4.6742,4.6739,4.6741,4.6738,4.6737,4.6734,4.6742,4.6743,4.6744,4.6747,4.6748,4.6734,4.6734,4.6733,4.6733,0,4.6812,4.681,4.681,4.6803,4.68,4.6798,4.679,4.6788,4.6783,4.6777,4.6773,4.6765,4.6758,4.6756,4.675,4.6752,4.6751,4.6745,4.6738,4.6747,4.6749,4.675,4.6735,4.6734,4.6734,4.6734,0,0,4.6823,4.6814,4.6814,4.6812,4.6804,4.6802,4.68,4.6795,4.6794,4.6788,4.6786,4.6779,4.6775,4.677,4.6763,4.6763,4.6771,4.6757,4.6757,4.6761,4.6774,4.6779,4.678,4.6766,4.6766,4.6766,4.6775,0,4.6828,4.6827,4.6821,4.682,4.6818,4.6811,4.6809,4.6804,4.6799,4.6796,4.679,4.6786,4.678,4.6777,4.6777,4.677,4.6773,4.6769,4.6764,4.6764,4.6767,4.6782,4.6786,4.6795,4.6776,4.6776,4.6776,0,4.6834,4.6831,4.6831,4.6826,4.6825,4.6824,4.682,4.6817,4.6811,4.6808,4.6804,4.6797,4.6795,4.6789,4.6787,4.6784,4.6782,4.6778,4.6778,4.6778,4.6771,4.6781,4.6797,4.6798,4.6778,4.6778,4.6778,0,4.6843,4.6839,4.6839,4.6837,4.683,4.683,4.6827,4.6821,4.6819,4.6815,4.6814,4.6809,4.6806,4.6803,4.6795,4.6791,4.6794,4.6787,4.6791,4.6791,4.6791,4.6791,4.6807,4.6789,4.6789,4.6789,4.6789,0,4.685,4.685,4.6843,4.6843,4.6844,4.6837,4.6838,4.6834,4.683,4.6828,4.6821,4.682,4.681,4.6807,4.6801,4.6801,4.6799,4.6796,4.6795,4.6797,4.6798,4.6795,4.6795,4.679,4.679,4.6789,4.6789,0,4.686,4.6855,4.6855,4.6849,4.6848,4.6849,4.6844,4.6843,4.6839,4.6838,4.6837,4.683,4.6827,4.6819,4.6814,4.681,4.6811,4.6808,4.6813,4.6813,4.6817,4.6817,4.6832,4.6834,4.6815,4.6815,4.6816,0,4.6864,4.6865,4.686,4.686,4.6858,4.6857,4.6856,4.685,4.6848,4.6844,4.6844,4.6841,4.6838,4.6835,4.6828,4.6824,4.6821,4.6827,4.682,4.6824,4.6822,4.6822,4.6823,4.6828,4.6828,4.6828,4.6829,0,4.6873,4.6872,4.6871,4.687,4.6869,4.6867,4.6865,4.6865,4.6858,4.6857,4.6855,4.6853,4.6849,4.6847,4.6843,4.6839,4.6833,4.6831,4.6832,4.6834,4.6838,4.6837,4.6818,4.683,4.683,4.683,4.683,4.683,4.6881,4.6882,4.688,4.6879,4.6878,4.6876,4.6877,4.6873,4.6872,4.687,4.6866,4.6865,4.6861,4.6855,4.6852,4.6851,4.6847,4.6848,4.6849,4.6849,4.6851,4.6839,4.685,4.685,4.685,4.685,4.685,0,4.689,4.6889,4.6889,4.6887,4.6887,4.6884,4.6882,4.6882,4.6882,4.6879,4.6878,4.6876,4.6875,4.6869,4.6867,4.6867,4.6864,4.6866,4.6866,4.6866,4.6853,4.6853,4.6869,4.6869,4.6869,4.6869,4.6869,4.6869,4.6895,4.6897,4.6896,4.6897,4.6896,4.6896,4.6895,4.6894,4.6893,4.6892,4.6891,4.6889,4.6885,4.6883,4.6881,4.6879,4.6879,4.6882,4.688,4.6868,4.6866,4.6865,4.6865,4.6882,4.6882,4.6893,4.6893,4.6893]}]]